Weather in Gulik

Russia / Amur Oblast     53°44′53″N   127°05′55″E
temp.,
°C
wind,
m/s
gust,
m/s
humid.,
%
clouds,
%
prec.,
mm/h
press.,
hPa
HPBL,
m
17 april, sat
sat1700:00−4nne227977 0.0 101516
03:00−5nne11805 0.0 101411
06:00−6n11845 0.0 101510
09:00+1wsw11645 0.0 1014226
12:00+3ssw236897 0.0 1012508
15:00+6s245398 0.0 1010918
18:00+5ese23635 0.0 100955
21:00−1ene22792 0.0 101015
18 april, sun
sun1800:00−2ene23790 0.0 101050
03:00−3ene24765 0.0 100966
06:00−3e25718 0.0 100985
09:00+3ese465669 0.0 1008343
12:00+9se5847100 0.0 1006923
15:00+13se484648 0.0 10021392
18:00+9e376313 0.0 1001124
21:00+4e487496 0.0 1002136
19 april, mon
mon1900:00+3e3785100 0.0 1001129
03:00+2ese3683100 0.1 1001131
06:00−1nw3698100 1.9 1002301
09:00−4nw8137596 5.4 1006874
12:00−2nw9136098 0.0 10071661
15:00−2nw9145497 0.1 10082075
18:00−3nw9165899 0.1 10082095
21:00−5nw91966100 0.1 10071682
20 april, tue
tue2000:00−6nnw9176752 0.0 10071195
03:00−6nw713615 0.0 1009906
06:00−7nw613610 0.0 1011641
09:00−3nnw69480 0.0 1012702
12:00+2nnw57424 0.0 1011947
15:00+5nnw57346 0.0 10111138
18:00+5n23495 0.0 101193
21:00−1ne216888 0.0 101311
21 april, wed
wed2100:00−2nne217327 0.0 101516
03:00−3nne11744 0.0 101714
06:00−3ne217242 0.0 101823
09:00+4e234618 0.0 1018428
12:00+8ese3441100 0.0 1018904
15:00+10se56421 0.0 10161215
18:00+8e4957100 0.0 1016445
21:00+4ene3770100 0.0 1017153